When you browse on this site, cookies collect data to enhance your experience and personalize the content and advertising you see.
Visit our Privacy Policy to learn more. By continuing to use the site, you agree to this use of cookies and data.
  • în România
  • Lista ţărilor
  • Pe 7 zile
  • Temperatura apei
  • Meteo pe hartă
  • Widget-uri
  • user-avatar
    Intrare

    Meteo pe oră la Campo Grande

    Astăzi, 27 Februarie, Joi

    Timp Temperatura Precipitaţii Vânt Presiune Umiditate
    00:00 +20°C° 0 mm 2 m/s 709 mmHg 92%
    01:00 +20°C° 0 mm 2 m/s 708 mmHg 92%
    02:00 +20°C° 0 mm 2 m/s 708 mmHg 92%
    03:00 +20°C° 0 mm 2 m/s 708 mmHg 92%
    04:00 +19°C° 0 mm 2 m/s 708 mmHg 93%
    05:00 +19°C° 0 mm 2 m/s 708 mmHg 93%
    06:00 +20°C° 0 mm 3 m/s 709 mmHg 90%
    07:00 +21°C° 0 mm 3 m/s 709 mmHg 88%
    08:00 +22°C° 0 mm 3 m/s 710 mmHg 85%
    09:00 +25°C° 0 mm 3 m/s 710 mmHg 78%
    10:00 +26°C° 0 mm 3 m/s 710 mmHg 71%
    11:00 +28°C° 0 mm 3 m/s 710 mmHg 63%
    12:00 +28°C° 0 mm 3 m/s 710 mmHg 62%
    13:00 +28°C° 0 mm 3 m/s 709 mmHg 61%
    14:00 +29°C° 0 mm 3 m/s 709 mmHg 59%
    15:00 +28°C° 0 mm 3 m/s 708 mmHg 64%
    16:00 +27°C° 0 mm 3 m/s 708 mmHg 69%
    17:00 +27°C° 0 mm 3 m/s 707 mmHg 73%
    18:00 +25°C° 0 mm 2 m/s 708 mmHg 74%
    19:00 +24°C° 0 mm 2 m/s 708 mmHg 74%
    20:00 +23°C° 0 mm 2 m/s 709 mmHg 74%
    21:00 +21°C° 0 mm 2 m/s 709 mmHg 76%
    22:00 +21°C° 0 mm 2 m/s 709 mmHg 78%
    23:00 +20°C° 0 mm 2 m/s 709 mmHg 81%

    Mâine, 28 Februarie, Vineri

    Timp Temperatura Precipitaţii Vânt Presiune Umiditate
    00:00 +20°C° 0 mm 2 m/s 709 mmHg 83%
    01:00 +20°C° 0 mm 2 m/s 709 mmHg 86%
    02:00 +20°C° 0 mm 2 m/s 709 mmHg 88%
    03:00 +19°C° 0 mm 2 m/s 709 mmHg 90%
    04:00 +19°C° 0 mm 2 m/s 709 mmHg 93%
    05:00 +19°C° 0 mm 2 m/s 709 mmHg 95%
    06:00 +20°C° 0 mm 2 m/s 709 mmHg 92%
    07:00 +21°C° 0 mm 3 m/s 710 mmHg 90%
    08:00 +22°C° 0 mm 3 m/s 711 mmHg 87%
    09:00 +25°C° 0 mm 3 m/s 711 mmHg 82%
    10:00 +26°C° 0 mm 3 m/s 711 mmHg 77%
    11:00 +27°C° 0 mm 3 m/s 711 mmHg 72%
    12:00 +28°C° 0 mm 3 m/s 711 mmHg 69%
    13:00 +28°C° 0 mm 3 m/s 710 mmHg 67%
    14:00 +29°C° 0 mm 3 m/s 710 mmHg 64%
    15:00 +28°C° 0 mm 3 m/s 709 mmHg 68%
    16:00 +28°C° 0 mm 3 m/s 709 mmHg 72%
    17:00 +27°C° 0 mm 3 m/s 708 mmHg 75%
    18:00 +26°C° 0 mm 3 m/s 709 mmHg 79%
    19:00 +24°C° 0 mm 3 m/s 709 mmHg 83%
    20:00 +22°C° 0 mm 3 m/s 709 mmHg 86%
    21:00 +22°C° 0 mm 3 m/s 710 mmHg 87%
    22:00 +21°C° 0 mm 3 m/s 710 mmHg 88%
    23:00 +21°C° 0 mm 3 m/s 710 mmHg 89%

    Poimâine, 29 Februarie, Sâmbătă

    Timp Temperatura Precipitaţii Vânt Presiune Umiditate
    00:00 +21°C° 0 mm 3 m/s 710 mmHg 90%
    01:00 +20°C° 0 mm 2 m/s 710 mmHg 91%
    02:00 +20°C° 0 mm 2 m/s 710 mmHg 92%
    03:00 +20°C° 0 mm 2 m/s 710 mmHg 92%
    04:00 +20°C° 0 mm 2 m/s 710 mmHg 93%
    05:00 +19°C° 0 mm 2 m/s 710 mmHg 94%
    06:00 +21°C° 0 mm 3 m/s 710 mmHg 91%
    07:00 +22°C° 0 mm 3 m/s 711 mmHg 89%
    08:00 +25°C° 0 mm 4 m/s 712 mmHg 87%
    09:00 +26°C° 0 mm 3 m/s 712 mmHg 82%
    10:00 +27°C° 0 mm 3 m/s 712 mmHg 76%
    11:00 +28°C° 0 mm 3 m/s 712 mmHg 71%
    12:00 +28°C° 0.1 mm 4 m/s 711 mmHg 69%
    13:00 +29°C° 0.1 mm 4 m/s 711 mmHg 67%
    14:00 +29°C° 0.1 mm 4 m/s 710 mmHg 66%
    15:00 +28°C° 0 mm 4 m/s 710 mmHg 68%
    16:00 +28°C° 0 mm 4 m/s 709 mmHg 71%
    17:00 +27°C° 0 mm 3 m/s 709 mmHg 74%
    18:00 +26°C° 0 mm 3 m/s 709 mmHg 77%
    19:00 +25°C° 0 mm 3 m/s 710 mmHg 81%
    20:00 +22°C° 0 mm 3 m/s 710 mmHg 84%
    21:00 +22°C° 0 mm 3 m/s 710 mmHg 85%
    22:00 +22°C° 0 mm 3 m/s 710 mmHg 86%
    23:00 +21°C° 0 mm 3 m/s 710 mmHg 86%

    1 Martie, Duminică

    Timp Temperatura Precipitaţii Vânt Presiune Umiditate
    00:00 +21°C° 0 mm 3 m/s 710 mmHg 88%
    01:00 +21°C° 0 mm 3 m/s 710 mmHg 90%
    02:00 +21°C° 0 mm 3 m/s 710 mmHg 91%
    03:00 +20°C° 0 mm 3 m/s 710 mmHg 92%
    04:00 +20°C° 0 mm 3 m/s 710 mmHg 93%
    05:00 +20°C° 0 mm 3 m/s 710 mmHg 94%
    06:00 +21°C° 0 mm 4 m/s 710 mmHg 92%
    07:00 +21°C° 0 mm 4 m/s 711 mmHg 91%
    08:00 +22°C° 0 mm 5 m/s 711 mmHg 89%
    09:00 +23°C° 0 mm 5 m/s 711 mmHg 85%
    10:00 +25°C° 0 mm 4 m/s 711 mmHg 82%
    11:00 +25°C° 0 mm 4 m/s 711 mmHg 78%
    12:00 +26°C° 0 mm 4 m/s 711 mmHg 76%
    13:00 +27°C° 0 mm 4 m/s 711 mmHg 74%
    14:00 +28°C° 0 mm 4 m/s 710 mmHg 71%
    15:00 +27°C° 0.1 mm 4 m/s 710 mmHg 74%
    16:00 +27°C° 0.1 mm 4 m/s 709 mmHg 77%
    17:00 +26°C° 0.1 mm 4 m/s 709 mmHg 80%
    18:00 +25°C° 0 mm 4 m/s 709 mmHg 83%
    19:00 +23°C° 0 mm 4 m/s 709 mmHg 86%
    20:00 +21°C° 0 mm 4 m/s 710 mmHg 90%
    21:00 +21°C° 0 mm 4 m/s 710 mmHg 90%
    22:00 +21°C° 0 mm 4 m/s 710 mmHg 90%
    23:00 +20°C° 0 mm 4 m/s 710 mmHg 90%

    2 Martie, Luni

    Timp Temperatura Precipitaţii Vânt Presiune Umiditate
    00:00 +20°C° 0 mm 4 m/s 710 mmHg 91%
    01:00 +20°C° 0 mm 4 m/s 709 mmHg 92%
    02:00 +19°C° 0 mm 4 m/s 709 mmHg 93%
    03:00 +19°C° 0 mm 4 m/s 709 mmHg 93%
    04:00 +19°C° 0 mm 4 m/s 709 mmHg 93%
    05:00 +19°C° 0 mm 4 m/s 709 mmHg 93%
    06:00 +19°C° 0 mm 4 m/s 710 mmHg 89%
    07:00 +20°C° 0 mm 5 m/s 710 mmHg 86%
    08:00 +21°C° 0 mm 5 m/s 711 mmHg 82%
    09:00 +22°C° 0 mm 5 m/s 711 mmHg 79%
    10:00 +23°C° 0 mm 5 m/s 711 mmHg 75%
    11:00 +26°C° 0 mm 4 m/s 711 mmHg 72%
    12:00 +26°C° 0.1 mm 4 m/s 710 mmHg 72%
    13:00 +25°C° 0.1 mm 4 m/s 710 mmHg 73%
    14:00 +25°C° 0.1 mm 4 m/s 709 mmHg 74%
    15:00 +25°C° 0.1 mm 4 m/s 709 mmHg 77%
    16:00 +23°C° 0.1 mm 4 m/s 709 mmHg 79%
    17:00 +23°C° 0.1 mm 4 m/s 708 mmHg 82%
    18:00 +22°C° 0 mm 4 m/s 708 mmHg 86%
    19:00 +21°C° 0 mm 4 m/s 709 mmHg 89%
    20:00 +20°C° 0 mm 3 m/s 709 mmHg 93%
    21:00 +19°C° 0 mm 3 m/s 709 mmHg 94%
    22:00 +19°C° 0 mm 3 m/s 709 mmHg 94%
    23:00 +19°C° 0 mm 3 m/s 709 mmHg 94%

    3 Martie, Marţi

    Timp Temperatura Precipitaţii Vânt Presiune Umiditate
    00:00 +19°C° 0 mm 3 m/s 709 mmHg 95%
    01:00 +19°C° 0 mm 2 m/s 708 mmHg 95%
    02:00 +19°C° 0 mm 2 m/s 708 mmHg 95%
    03:00 +19°C° 0 mm 2 m/s 708 mmHg 95%
    04:00 +19°C° 0 mm 2 m/s 708 mmHg 95%
    05:00 +18°C° 0 mm 3 m/s 708 mmHg 95%
    06:00 +19°C° 0 mm 3 m/s 709 mmHg 92%
    07:00 +20°C° 0 mm 4 m/s 709 mmHg 89%
    08:00 +21°C° 0 mm 4 m/s 710 mmHg 86%
    09:00 +23°C° 0 mm 4 m/s 710 mmHg 82%
    10:00 +25°C° 0 mm 4 m/s 710 mmHg 78%
    11:00 +26°C° 0 mm 3 m/s 710 mmHg 73%
    12:00 +27°C° 0.1 mm 3 m/s 710 mmHg 70%
    13:00 +28°C° 0.1 mm 3 m/s 709 mmHg 66%
    14:00 +28°C° 0.1 mm 2 m/s 709 mmHg 63%
    15:00 +28°C° 0 mm 2 m/s 708 mmHg 67%
    16:00 +27°C° 0 mm 3 m/s 708 mmHg 71%
    17:00 +26°C° 0 mm 3 m/s 707 mmHg 75%
    18:00 +25°C° 0 mm 3 m/s 708 mmHg 80%
    19:00 +24°C° 0 mm 3 m/s 708 mmHg 85%
    20:00 +21°C° 0 mm 3 m/s 708 mmHg 90%
    21:00 +21°C° 0 mm 3 m/s 709 mmHg 90%
    22:00 +21°C° 0 mm 3 m/s 709 mmHg 91%
    23:00 +21°C° 0 mm 3 m/s 709 mmHg 92%
    Arată mai mult